www.pogodaiklimat.ru

Погода и климат >> Архив погоды >> Россия >> Иркутская область >> Черемхово


ПОГОДА в Черемхово

  • Прогноз погоды в Черемхово
  • Монитор погоды в Черемхово
  • Климат города

АРХИВ ПОГОДЫ в Черемхово

Время (UTC), дата Ветер
(напр.,м/с)
 
Видим.   Явления Облачность Т
(С)
Тd
(С)
f
(%)
Тe
(С)
Тes
(С)
Комфортность P
(гПа)
Po
(гПа)
Тmin
(С)
Tmax
(С)
R
(мм)
R24
(мм)
S
(см)
18 18.05 СЗ 2 н/о 10 баллов +2.9 -4.1 60 0 0 1024.5 952.0
21 18.05 штиль 0 10 км 10/10 600 м
[Cb cap]
+1.3 -3.2 72 +1 +1 1025.0 952.2
00 19.05 СЗ 2
{4}
20 км 9 баллов +2.6 -1.0 77 -0 0 1027.5 954.7 +0.9
03 19.05 В 2 50 км 9/9 600 м
[Cb cap]
+4.6 -5.8 47 +3 +4 1027.3 955.1
06 19.05 С 4 50 км 9 баллов +5.6 -6.0 43 +2 +3 1028.1 956.0
09 19.05 С 2 50 км 9/9 600 м
[Cb cap]
+6.3 -6.0 41 +5 +5 1026.7 954.9
12 19.05 штиль 0 50 км 6 баллов +6.8 -5.2 42 +7 +7 1027.8 956.0 +8.6
15 19.05 штиль 0 н/о ясно +2.3 -3.3 66 +2 +2 1028.2 955.4
18 19.05 В 2 н/о ясно +1.3 -3.9 68 -2 -2 1029.2 956.0
21 19.05 В 2 20 км 1/1 1000 м
[Sc]
-2.9 -4.2 91 -7 -7 1029.1 954.8
00 20.05 ЮВ 2
{4}
50 км 1 балл +3.2 -3.2 63 +1 +4 1028.7 956.0 -3.0
03 20.05 ЮВ 2 50 км ясно +9.2 -4.8 37 +8 +21 опасность
простуды
1025.4 954.4
06 20.05 ЮВ 2 50 км ясно +11.3 -2.9 37 +11 +26 опасность
простуды
1023.7 953.3
09 20.05 ЮЗ 2 50 км 3/0
[Ci sp]
+16.0 -4.2 25 +16 +23 1018.8 949.9
12 20.05 В 2
{4}
50 км 2 балла +15.0 -4.4 26 +15 +16 1018.5 949.3 +16.5
15 20.05 СВ 2 н/о 4/3 600 м
[Cb cap Ci fib]
+7.3 -9.0 30 +6 +6 1019.4 948.4
18 20.05 СВ 4 н/о 4 балла +7.0 -2.7 50 +4 +4 1019.1 948.0
21 20.05 СВ 2 20 км 3/1 600 м
[Sc Ci sp]
+3.3 -2.4 66 +1 +1 1018.2 946.4
00 21.05 Ю 2
{4}
50 км 2 балла +8.6 -1.5 49 +7 +10 1017.3 946.7 +2.5
03 21.05 СЗ 2 50 км 4/0
[Ci sp]
+17.0 -5.2 21 +17 +29 опасность
простуды
1012.6 944.4
06 21.05 ЮЗ 2 50 км 7 баллов +20.4 -5.5 17 +21 +25 комфорт 1011.5 944.0
09 21.05 СЗ 4 50 км 9/9 600 м
[Cb cap]
+20.6 -5.9 16 +20 +21 1007.8 940.6
12 21.05 СЗ 4
{6}
50 км 9 баллов +17.2 -1.5 28 +17 +17 1010.8 942.7 +21.9
15 21.05 СЗ 2 н/о 8/8 600 м
[Cb cap]
+12.2 +3.2 54 +12 +12 1013.6 944.3
18 21.05 СЗ 8
{12}
н/о 10 баллов +5.5 +0.9 72 0 0 1020.8 949.3
21 21.05 СЗ 6
{12}
10 км 10/4 600 м
[Cb cap Ci sp]
+2.9 -6.1 52 -2 -2 1024.2 951.8
00 22.05 СЗ 2
{12}
10 км 9 баллов +4.5 +0.3 74 +2 +2 1025.4 953.3 +2.6
03 22.05 Ю 2 50 км 9/1 600 м
[Cb cap Ci sp]
+10.4 0.0 48 +9 +19 опасность
простуды
1022.2 951.8
06 22.05 З 4 50 км 10 баллов +15.0 -1.1 33 +14 +14 1019.9 950.7
09 22.05 Ю 4 50 км 10/3 600 м
[Cb cap Ac trans Ci sp]
+17.9 -3.2 24 +18 +20 1014.9 946.7
12 22.05 Ю 4
{6}
50 км 7 баллов +18.1 +0.2 30 +18 +18 1014.9 946.7 +19.1
15 22.05 Ю 2 н/о 3/1 1000 м
[Sc Ci fib]
+12.7 +1.2 45 +12 +12 1015.2 945.8
18 22.05 штиль 0 н/о 1 балл +11.0 +2.3 55 +11 +11 1016.6 946.7
21 22.05 З 2 20 км 10/1 1000 м
[Sc Cs]
+10.1 +2.1 58 +9 +9 1016.0 946.0
00 23.05 ЮЗ 2
{4}
50 км 10 баллов +15.0 +2.2 42 +15 +15 1015.6 946.7 +8.8
03 23.05 ЮЗ 2 50 км 4/0
[Ci sp]
+21.8 +2.6 28 +22 +34 комфорт 1012.6 945.2
06 23.05 З 6 50 км 9 баллов +24.4 +1.3 22 +23 +24 комфорт 1011.9 945.3
09 23.05 СЗ 6 50 км 10/6 600 м
[Cb cap As op Ci sp]
+25.1 +2.0 22 +24 +25 комфорт 1009.5 943.3
12 23.05 СЗ 2
{8}
50 км 10 баллов +21.5 +5.4 35 +22 +22 комфорт 1011.1 944.0 +25.6
15 23.05 ЮЗ 2 н/о 4/4 600 м
[Cb cap]
+17.7 +4.8 42 +18 +18 1011.1 943.3
18 23.05 Ю 2 н/о ясно +15.1 +1.9 41 +15 +15 1012.7 944.0
21 23.05 ЮВ 2 20 км 10/10 1000 м
[Sc]
+11.5 +3.4 57 +11 +11 1010.6 941.4
00 24.05 ЮВ 2
{4}
50 км 10 баллов +14.8 +5.0 52 +15 +15 1011.3 942.7 +10.4
03 24.05 Ю 2 50 км 8/1 1000 м
[Sc Ci sp]
+24.5 +5.5 29 +24 +34 комфорт 1007.1 940.7
06 24.05 ЮЗ 2 50 км 9 баллов +30.7 +10.1 28 +30 +32 жарко 1004.7 940.0
09 24.05 З 4 50 км 8/0
[Ci sp]
+31.8 +10.2 26 +31 +36 жарко 1002.0 937.8
12 24.05 Ю 2
{8}
50 км 6 баллов +29.4 +7.9 26 +29 +29 жарко 1002.1 937.3 +32.4
15 24.05 ЮВ 2 н/о 6/4 1000 м
[Cb cap Ci fib]
+22.8 +8.0 39 +24 +24 комфорт 1003.5 937.3
18 24.05 СЗ 2 н/о 4 балла +15.4 +4.7 49 +15 +15 1006.9 938.7
21 24.05 З 2 20 км 6/3 1000 м
[Sc Cs]
+12.5 +4.1 57 +12 +12 1006.3 937.5
00 25.05 ЮВ 1
{5}
50 км 9 баллов +19.0 +4.4 38 +20 +21 1006.0 938.7 +12.5
03 25.05 С 2 50 км 10/0
[Ci sp]
+25.7 +10.6 39 +27 +37 жарко 1004.6 939.0
09 25.05 В 2 50 км 10/0
[Ci sp]
+29.1 +5.1 22 +28 +34 жарко 999.7 935.0
12 25.05 СВ 2
{8}
50 км 10 баллов +26.4 +8.4 32 +26 +26 жарко 1001.4 936.0 +30.0

 

Местоположение метеостанции Черемхово (Иркутская область, Россия): широта 53.18 долгота 103.00 высота над уровнем моря 598 м.

В архиве по умолчанию представлена погода в Черемхово за последнюю неделю. Архивные данные за месяц целиком и за предыдущие месяцы, начиная с января 2011 года, Вы можете получить, выбрав интересующий диапазон дат из раскрывающегося списка и нажав кнопку "Ввод!".

Внимание! Время в таблицах - всемирное. Для получения местного времени необходимо прибавить поправку, которая в Черемхово равна 8 ч.

Смотрите также архив погоды в соседних городах и на ближайших метеорологических станциях:

Погода в Заларях (Иркутская область, Россия) (53 км)
Погода в Инге (Иркутская область, Россия) (77 км)
Погода в Балаганске (Иркутская область, Россия) (91 км)
Погода в Ангарск (Иркутская область, Россия) (95 км)
Погода в Зиме (Иркутская область, Россия) (106 км)
Погода в Хомутово (Иркутская область, Россия) (119 км)
Погода в Усть-Ордынском (Иркутская область, Россия) (121 км)
Погода в Дабадах (Иркутская область, Россия) (122 км)
Погода в Иркутске (Иркутская область, Россия) (134 км)
Погода в Иркутск аэропорт (Иркутская область, Россия) (134 км)

Пояснения к столбцам:

Ветер - указаны скорость ветра в м/с - средняя за 10 мин, порывы в срок и между сроками (в фигурных скобках) и направление, откуда дует ветер: С - северный, СВ - северо-восточный, В - восточный, ЮВ - юго-восточный, Ю - южный, ЮЗ - юго-западный, З - западный, СЗ - северо-западный.
Видимость - горизонтальная дальность видимости в метрах или километрах. При видимости от 1 до 10 км при отсутствии осадков обычно наблюдается дымка, при ухудшении видимости до 1 км и менее - туман. В сухую погоду видимость может ухудшаться дымом, пылью или мглою.
Явления - указаны атмосферные явления, наблюдавшиеся в срок или в последний час перед сроком; фигурными скобками обозначены явления, наблюдавшиеся между сроками (за 1-3 часа до срока); квадратными скобками обозначены град или гололедные отложения с указанием их диаметра в мм.
Облачность - указаны через наклонную черту общая и нижняя облачность в баллах и высота нижней границы облаков в метрах; квадратными скобками обозначены формы облаков: Ci - перистые, Cs - перисто-слоистые, Cc - перисто-кучевые, Ac - высококучевые, As - высокослоистые, Sc - слоисто-кучевые, Ns - слоисто-дождевые, Cu - кучевые, Cb - кучево-дождевые. Подробнее классификацию облаков см. в Атласе облаков (PDF).
T - Температура воздуха - температура, измеренная на высоте 2 м над землей.
Td - Температура точки росы - температура, при понижении до которой содержащийся в воздухе водяной пар достигнет насыщения.
f - Относительная влажность воздуха - влажноcть воздуха, измеренная на высоте 2 м над землей.
Te - Эффективная температура - температура, которую ощущает одетый по сезону человек в тени. Характеристика душности погоды. При расчете учитывается влияние влажности воздуха и скорости ветра на теплоощущения человека.
Tes - Эффективная температура на солнце - температура, которую ощущает человек, с поправкой на солнечный нагрев. Характеристика знойности погоды. Зависит от высоты солнца над горизонтом, облачности и скорости ветра. Ночью, в пасмурную погоду, а также при ветре 12 м/с и более поправка равна нулю.
P - Атмосферное давление - приведенное к уровню моря атмосферное давление.
Po - Атмосферное давление - измеренное на уровне метеостанции атмосферное давление.
Tmin - Минимальная температура - минимум температуры воздуха на высоте 2 м над землей.
Tmax - Максимальная температура - максимум температуры воздуха на высоте 2 м над землей.
R - Количество осадков - Количество выпавших осадков за период времени, мм. При наведении курсора мыши на число - период времени, за который выпало указанное количество осадков.
R24 - Количество осадков - Количество выпавших осадков за 24 часа, мм.
S - Снежный покров - Высота снежного покрова, см. При наведении курсора мыши на число - состояние снежного покрова и степень покрытия местности в баллах.